Retour au catalogue

COSMOS 839 DEB

ActifUNKNOWN
NORAD 10448·DEBRIS·🇷🇺 Russia

Lancé Jul 8, 1976 depuis Plesetsk Cosmodrome

Loading…

Prochains Passages (prochaines 24 heures)

TLE

FraisSource: Space-Track

Époque: Sep 14, 2026, 07:45 UTC

1 10448U 76067Z   26257.32331966  .00000036  00000-0  26665-3 0  9995
2 10448  66.1668 224.6992 0742315  47.5285  93.8105 12.37370862265658

Suivez COSMOS 839 DEB en temps réel avec AllMySat

Download on the App Store